Location: Newark
(50.0336°N, 22.0047°E)
Time: 06:40:10
(UTC+00:00)

N. Korean satellite - Pass Details

Date: 27 January 2020
Orbit: 456 x 505 km, 97.2° (Epoch: 27 February)

Event Time Altitude Azimuth Distance (km) Brightness Sun altitude
Rises 04:49:51 0° 8° (N) 2,541 10.2 -13.3°
Reaches altitude 10° 04:51:56 10° 4° (N) 1,666 9.2 -13.0°
Maximum altitude 04:55:26 53° 287° (WNW) 606 6.6 -12.4°
Drops below altitude 10° 04:58:57 10° 210° (SSW) 1,679 9.1 -11.9°
Sets 05:01:03 0° 206° (SSW) 2,564 10.1 -11.6°
